[[{"header":{"parameterUnit":"m.s-1","parameterCategory":1,"la1":30.2991,"la2":30.254,"lo1":-89.0895,"lo2":-89.0444,"dy":0.0017,"dx":0.0017,"nx":28,"ny":28,"refTime":"2025-12-24T09:00:00:Z","depth":0,"parameterNumber":2,"parameterNumberName":"U-component_of_WINDS"},"data":[0,0,0,0,0,0,0,0,0,0,0,0,0,0,0,0,0,0,0,0,0,0,0,0,0,0,0,0,0,0,0,0,0,0,0,0,0,0,0,0,0,0,0,0,0,0,0,0,0,0,0,0,0,0,0,0,0,0,1.5078,1.5079,0,1.5138,1.5139,1.5139,1.5098,1.5096,1.5094,1.5093,1.5158,1.5161,1.5165,0,0,0,0,0,0,0,0,0,0,0,0,0,1.4933,1.4936,1.5078,1.5079,1.508,1.5138,1.5139,1.514,1.5098,1.5096,1.5094,1.5092,1.5157,1.5161,1.5165,0,0,0,0,0,0,0,0,0,0,0,0,0,1.4995,1.4937,1.5078,1.5066,1.5066,1.5138,1.5139,1.514,1.5099,1.5096,1.5093,1.5091,1.5156,1.5161,1.5166,1.5254,0,0,1.5182,1.5184,0,0,0,0,0,0,0,0,1.4992,1.5001,1.5067,1.5067,1.5067,1.5108,1.5112,1.5178,1.51,1.5086,1.5093,1.5089,1.5144,1.515,1.5167,1.5257,1.526,1.5182,1.5185,1.5188,1.5189,0,0,0,0,0,0,0,1.4987,1.4998,1.5102,1.5068,1.5068,1.5059,1.5065,1.5124,1.513,1.5087,1.5084,1.5092,1.5143,1.5162,1.5169,1.5261,1.5182,1.5187,1.519,1.5192,1.5429,1.5432,0,0,0,0,0,0,1.4984,1.4994,1.51,1.5104,1.5021,1.5064,1.5071,1.5097,1.513,1.5132,1.5094,1.509,1.5155,1.5163,1.5171,1.5278,1.5188,1.5193,1.5196,1.5426,1.543,1.5433,0,0,0,0,0,0,1.4981,1.4993,1.5098,1.5048,1.5061,1.507,1.51,1.51,1.5119,1.5135,1.5136,1.5112,1.5153,1.5163,1.5234,1.5279,1.5195,1.52,1.5422,1.5427,1.5431,1.5492,0,0,0,0,0,0,1.4977,1.4993,1.5025,1.5049,1.5064,1.5159,1.5103,1.5103,1.5128,1.5123,1.5152,1.5154,1.5152,1.5226,1.5239,1.5285,1.5204,1.5418,1.5424,1.543,1.5486,1.5498,1.5508,0,0,0,0,0,1.4972,1.504,1.5027,1.504,1.5104,1.5161,1.517,1.5164,1.5132,1.5165,1.5176,1.5153,1.5272,1.5234,1.5248,1.5296,1.5415,1.5423,1.5429,1.5481,1.5496,1.5508,0,0,0,0,0,0,1.5022,1.5043,1.5029,1.5107,1.5133,1.5154,1.5196,1.518,1.5216,1.521,1.5202,1.5209,1.5284,1.5297,1.5254,1.5385,1.5339,1.5349,1.5373,1.5387,1.5399,1.5394,1.5208,0,0,0,0,0,1.5042,1.5085,1.5102,1.5169,1.5183,1.5188,1.5212,1.5205,1.5232,1.5243,1.5259,1.5287,1.5331,1.536,1.5401,1.5487,1.5494,1.5528,1.5539,1.5548,1.5558,1.5606,1.5622,1.5456,1.5456,1.5456,0,0,1.5084,1.5101,1.5129,1.518,1.5199,1.5246,1.5197,1.5248,1.5283,1.5251,1.5319,1.5331,1.5363,1.5442,1.5478,1.5456,1.5605,1.5557,1.5565,1.5569,1.5615,1.5631,1.5645,1.5461,1.546,1.546,0,0,1.5185,1.5201,1.526,1.528,1.531,1.5312,1.5327,1.5351,1.5358,1.5425,1.5403,1.5446,1.5521,1.5544,1.5566,1.5677,1.5659,1.5691,1.5751,1.5798,1.5811,1.5823,1.5864,1.5878,1.57,1.57,1.57,0,1.5234,1.5302,1.5293,1.5346,1.537,1.5342,1.5403,1.5423,1.5465,1.5483,1.5457,1.5552,1.5571,1.5656,1.5683,1.5701,1.5719,1.5688,1.581,1.5821,1.5832,1.5871,1.5886,1.5704,1.5704,1.5703,1.5703,0,1.5362,1.5409,1.5453,1.5493,1.5522,1.5579,1.558,1.5611,1.5602,1.5608,1.5678,1.57,1.5746,1.5765,1.5758,1.5851,1.5836,1.581,1.5764,1.5851,1.5888,1.5903,1.5709,1.5708,1.5707,1.5706,0,0,1.5495,1.553,1.5547,1.5565,1.5596,1.5634,1.569,1.5733,1.5761,1.5791,1.5839,1.5904,1.588,1.5905,1.59,1.5941,1.603,1.5911,1.5911,1.5933,1.6136,1.6155,1.6173,1.6018,1.6021,1.6023,1.6133,0,1.5599,1.5695,1.5689,1.5781,1.5825,1.5801,1.585,1.5876,1.5883,1.5924,1.5933,1.5979,1.5944,1.5959,1.5999,1.6011,1.6071,1.6003,1.6064,1.6067,1.6058,1.6192,1.6213,1.6316,1.6148,1.615,1.6152,0,1.5732,1.5766,1.5861,1.5887,1.5906,1.595,1.599,1.6028,1.6057,1.606,1.6089,1.6077,1.6136,1.6088,1.617,1.6124,1.6149,1.6158,1.6162,1.6169,1.6115,1.6203,1.6348,1.6364,1.6174,1.6172,1.6171,0,1.5822,1.5891,1.5958,1.5974,1.6005,1.6037,1.6052,1.6078,1.6105,1.6141,1.6159,1.6201,1.6225,1.6259,1.626,1.6225,1.6344,1.6296,1.6349,1.6349,1.6376,1.6374,1.6529,1.6391,1.639,1.639,1.639,0,1.5938,1.5998,1.5999,1.604,1.6107,1.61,1.6167,1.6179,1.6203,1.6247,1.6229,1.6271,1.6269,1.6312,1.6314,1.6382,1.6393,1.6398,1.6398,1.64,1.64,1.6417,1.641,1.6394,1.6393,1.6392,1.6392,0,1.6049,1.6052,1.6123,1.6147,1.6154,1.6203,1.6224,1.6264,1.627,1.6326,1.6339,1.635,1.64,1.6404,1.6463,1.6464,1.6547,1.6539,1.6537,1.6536,1.659,1.6585,1.6761,1.6785,1.6631,1.6632,1.6633,0,1.6124,1.6169,1.6198,1.6225,1.6242,1.6287,1.6314,1.631,1.634,1.6377,1.6413,1.6462,1.65,1.6582,1.6596,1.6641,1.6634,1.6693,1.6641,1.6642,1.6636,1.6634,1.6639,1.6703,1.6705,1.6706,1.6707,0,1.6256,1.6256,1.6295,1.6336,1.6369,1.6401,1.6431,1.6455,1.6455,1.649,1.6541,1.657,1.663,1.6679,1.6723,1.674,1.6725,1.6724,1.6739,1.6742,1.6739,1.6743,1.6566,1.672,1.6718,1.6718,1.6717,1.6716,1.6352,1.6392,1.6418,1.6464,1.6486,1.6514,1.6553,1.6564,1.6606,1.6654,1.6649,1.6706,1.6736,1.6793,1.6814,1.6859,1.684,1.6861,1.6867,1.6872,1.6878,1.6732,1.6867,1.6867,1.6867,1.6866,1.6866,0,1.6484,1.65,1.6542,1.6584,1.662,1.6601,1.6634,1.6666,1.6715,1.6744,1.6782,1.6841,1.6889,1.6907,1.6953,1.6987,1.6981,1.6999,1.6997,1.7002,1.6893,1.6875,1.7003,1.7003,1.7003,1.7003,1.7003,1.7003,1.6557,1.6624,1.6627,1.6705,1.6721,1.6775,1.6796,1.6823,1.6845,1.6912,1.6951,1.6962,1.6987,1.7035,1.7079,1.7083,1.7102,1.7123,1.7125,1.7023,1.7009,1.6996,1.698,1.7127,1.7127,1.723,1.7231,1.7232]},{"header":{"parameterUnit":"m.s-1","parameterCategory":1,"la1":30.2991,"la2":30.254,"lo1":-89.0895,"lo2":-89.0444,"dy":0.0017,"dx":0.0017,"nx":28,"ny":28,"refTime":"2025-12-24T09:00:00:Z","depth":0,"parameterNumber":3,"parameterNumberName":"V-component_of_WINDS"},"data":[0,0,0,0,0,0,0,0,0,0,0,0,0,0,0,0,0,0,0,0,0,0,0,0,0,0,0,0,0,0,0,0,0,0,0,0,0,0,0,0,0,0,0,0,0,0,0,0,0,0,0,0,0,0,0,0,0,0,0.8664,0.8664,0,0.8656,0.8656,0.8656,0.8656,0.8656,0.8657,0.8657,0.8647,0.8647,0.8647,0,0,0,0,0,0,0,0,0,0,0,0,0,0.8676,0.8676,0.8664,0.8664,0.8664,0.8656,0.8656,0.8656,0.8656,0.8656,0.8657,0.8657,0.8648,0.8647,0.8647,0,0,0,0,0,0,0,0,0,0,0,0,0,0.867,0.8676,0.8664,0.8663,0.8663,0.8656,0.8656,0.8656,0.8656,0.8656,0.8657,0.8657,0.8648,0.8647,0.8647,0.864,0,0,0.8645,0.8645,0,0,0,0,0,0,0,0,0.867,0.8669,0.8663,0.8663,0.8663,0.8657,0.8657,0.8651,0.8656,0.8659,0.8657,0.8657,0.8651,0.865,0.8648,0.864,0.8639,0.8645,0.8645,0.8645,0.8644,0,0,0,0,0,0,0,0.8671,0.867,0.8661,0.8663,0.8663,0.8662,0.8661,0.8656,0.8654,0.8658,0.8658,0.8658,0.865,0.8648,0.8648,0.8639,0.8645,0.8645,0.8644,0.8644,0.8624,0.8623,0,0,0,0,0,0,0.8672,0.867,0.8661,0.866,0.8667,0.8662,0.8661,0.8659,0.8654,0.8653,0.8658,0.8658,0.8649,0.8648,0.8647,0.8639,0.8645,0.8644,0.8644,0.8624,0.8624,0.8623,0,0,0,0,0,0,0.8672,0.8671,0.8661,0.8665,0.8664,0.8661,0.8659,0.8659,0.8657,0.8653,0.8653,0.8656,0.8649,0.8648,0.8642,0.8638,0.8644,0.8643,0.8624,0.8624,0.8623,0.8621,0,0,0,0,0,0,0.8672,0.8671,0.8669,0.8665,0.8664,0.8656,0.8659,0.8658,0.8656,0.8656,0.8652,0.8651,0.8649,0.8643,0.8641,0.8638,0.8643,0.8624,0.8624,0.8624,0.8622,0.8621,0.862,0,0,0,0,0,0.8673,0.8669,0.8669,0.8668,0.8662,0.8656,0.8655,0.8654,0.8656,0.8653,0.8651,0.8651,0.8639,0.8642,0.864,0.8637,0.8625,0.8624,0.8624,0.8622,0.8621,0.862,0,0,0,0,0,0,0.8672,0.8668,0.8668,0.8663,0.866,0.8656,0.8653,0.8653,0.8649,0.865,0.8648,0.8647,0.864,0.8638,0.8641,0.8629,0.8632,0.8631,0.8631,0.863,0.863,0.863,0.8642,0,0,0,0,0,0.8671,0.8668,0.8664,0.866,0.8659,0.8656,0.8654,0.8653,0.865,0.8648,0.8645,0.8641,0.8636,0.8633,0.8629,0.8621,0.862,0.8618,0.8617,0.8617,0.8616,0.861,0.8609,0.8622,0.8622,0.8622,0,0,0.8669,0.8667,0.8665,0.866,0.8657,0.8653,0.8655,0.8651,0.8647,0.8647,0.8641,0.8639,0.8634,0.8627,0.8623,0.8624,0.8612,0.8616,0.8616,0.8615,0.861,0.8608,0.8607,0.8621,0.8621,0.8621,0,0,0.8664,0.8662,0.8658,0.8655,0.8652,0.865,0.8649,0.8645,0.8643,0.8637,0.8636,0.8632,0.8624,0.862,0.8617,0.8609,0.8609,0.8608,0.8604,0.8599,0.8598,0.8597,0.8593,0.8592,0.8607,0.8607,0.8607,0,0.8662,0.8657,0.8656,0.8651,0.8648,0.8648,0.8643,0.8641,0.8635,0.8633,0.8634,0.8624,0.8621,0.8612,0.861,0.8608,0.8605,0.8608,0.8598,0.8597,0.8596,0.8592,0.8591,0.8607,0.8607,0.8607,0.8607,0,0.8654,0.865,0.8647,0.8642,0.8639,0.8634,0.8632,0.8628,0.8628,0.8625,0.8618,0.8614,0.8608,0.8606,0.8605,0.8597,0.8598,0.8599,0.8601,0.8595,0.8591,0.859,0.8607,0.8607,0.8607,0.8607,0,0,0.8649,0.8643,0.8641,0.8639,0.8634,0.863,0.8625,0.8619,0.8616,0.8612,0.8607,0.8599,0.86,0.8597,0.8595,0.8591,0.8583,0.8592,0.8592,0.859,0.8572,0.8571,0.8569,0.8583,0.8582,0.8582,0.8572,0,0.8642,0.8634,0.8632,0.8624,0.862,0.8619,0.8614,0.861,0.8607,0.8602,0.8599,0.8594,0.8595,0.8593,0.8589,0.8585,0.8579,0.8586,0.8577,0.8576,0.8577,0.8567,0.8566,0.8557,0.857,0.857,0.857,0,0.8634,0.863,0.8621,0.8616,0.8614,0.861,0.8604,0.86,0.8595,0.8593,0.8589,0.8587,0.858,0.8583,0.8573,0.8577,0.8573,0.8571,0.857,0.8569,0.8573,0.8565,0.8554,0.8552,0.8568,0.8568,0.8568,0,0.863,0.8622,0.8616,0.8613,0.8608,0.8604,0.8601,0.8597,0.8593,0.8587,0.8585,0.8578,0.8575,0.8569,0.8566,0.8568,0.8555,0.8558,0.8552,0.8552,0.855,0.855,0.8537,0.8548,0.8548,0.8548,0.8548,0,0.8623,0.8617,0.8614,0.861,0.8603,0.8601,0.8594,0.8591,0.8587,0.8581,0.858,0.8575,0.8571,0.8565,0.8562,0.8553,0.8551,0.8549,0.8548,0.8549,0.8549,0.8546,0.8546,0.8548,0.8548,0.8548,0.8548,0,0.8617,0.8615,0.8607,0.8602,0.86,0.8596,0.8591,0.8586,0.8583,0.8576,0.8574,0.857,0.8562,0.8558,0.8549,0.8547,0.8536,0.8536,0.8538,0.8538,0.8532,0.8532,0.8516,0.8513,0.8527,0.8527,0.8527,0,0.8613,0.8608,0.8602,0.8599,0.8596,0.8591,0.8587,0.8584,0.858,0.8573,0.8569,0.8561,0.8555,0.8543,0.8538,0.853,0.8529,0.8524,0.8528,0.8528,0.8528,0.8528,0.8527,0.8523,0.8523,0.8523,0.8523,0,0.8604,0.8603,0.8598,0.8592,0.8588,0.8583,0.8578,0.8575,0.8571,0.8566,0.8558,0.8553,0.8543,0.8535,0.8527,0.8523,0.8521,0.8521,0.852,0.852,0.8521,0.8519,0.8535,0.8522,0.8522,0.8522,0.8522,0.8522,0.8599,0.8594,0.8589,0.8583,0.8579,0.8574,0.8569,0.8566,0.856,0.8552,0.855,0.8542,0.8535,0.8524,0.8519,0.8511,0.8512,0.851,0.8509,0.8508,0.8508,0.8522,0.851,0.851,0.851,0.851,0.851,0,0.859,0.8586,0.8581,0.8574,0.8569,0.8568,0.8562,0.8558,0.8551,0.8545,0.8539,0.8529,0.8521,0.8515,0.8506,0.8501,0.85,0.8499,0.8499,0.8497,0.8508,0.851,0.8499,0.8499,0.8499,0.8499,0.8499,0.8499,0.8584,0.8577,0.8575,0.8565,0.8561,0.8553,0.855,0.8545,0.854,0.8529,0.8523,0.8519,0.8512,0.8503,0.8495,0.8493,0.8489,0.8488,0.8486,0.8496,0.8497,0.8498,0.85,0.8487,0.8487,0.8476,0.8476,0.8476]}]]